This demonstration page uses our WeatherBlox Daily Observations layout. Learn more.

Left ArrowRight Arrow

Hourly Observations for July 3, 2016

Temp ( °F °C ) Dew Point ( °F °C ) Humidity (%) Winds ( mph kmh ) Pressure ( in mb ) Visibility ( mi km ) Precip ( " mm )
12:13 am 00:13 Cloudy with Mist and Fog 63 17.2 61 16.1 93 93 E 9 15 29.94 1014 3 4 0.00 0.00
12:53 am 00:53 Cloudy with Mist and Fog 63 17.2 62 16.7 97 97 E 8 13 29.94 1014 3 4 0.00 0.00
1:04 am 01:04 Cloudy with Mist and Fog 63 17.2 62 16.7 97 97 E 8 13 29.94 1014 3 5 0.00 0.00
1:53 am 01:53 Cloudy with Mist and Fog 62 16.7 61 16.1 96 96 E 10 17 29.95 1014 3 4 0.00 0.00
2:19 am 02:19 Cloudy with Mist and Fog 62 16.7 61 16.1 96 96 ENE 12 19 29.91 1013 2 3 0.00 0.00
2:53 am 02:53 Cloudy with Mist and Fog 62 16.7 60 15.6 93 93 ENE 9 15 29.93 1014 4 6 0.00 0.00
3:53 am 03:53 Cloudy with Mist and Fog 61 16.1 60 15.6 97 97 E 8 13 29.93 1014 3 5 0.00 0.00
4:26 am 04:26 Cloudy with Mist and Fog 61 16 59 15 94 94 ENE 8 13 29.94 1014 2 2 0.00 0.00
4:53 am 04:53 Cloudy with Mist and Fog 60 15.6 59 15 96 96 ENE 10 17 29.93 1014 2 3 0.00 0.00
5:09 am 05:09 Cloudy with Mist and Fog 60 15.6 59 15 96 96 ENE 9 15 29.91 1013 3 5 0.00 0.00
5:53 am 05:53 Cloudy with Mist and Fog 60 15.6 59 15 96 96 ENE 8 13 29.93 1014 4 6 0.00 0.00
6:10 am 06:10 Cloudy with Light Rain 61 16 59 15 94 94 ENE 9 15 29.94 1014 3 4 0.00 0.00
6:20 am 06:20 Cloudy with Light Rain 61 16 59 15 94 94 E 9 15 29.94 1014 3 5 0.00 0.00
6:29 am 06:29 Cloudy with Light Rain 60 15.6 59 15 96 96 E 8 13 29.94 1014 2 3 0.01 0.25
6:48 am 06:48 Cloudy with Light Rain 61 16 59 15 94 94 E 6 9 29.94 1014 2 3 0.00 0.00
6:53 am 06:53 Cloudy with Light Rain 60 15.6 59 15 96 96 ENE 7 11 29.94 1014 2 3 0.02 0.51
7:21 am 07:21 Cloudy with Light Rain 60 15.6 59 15 96 96 ENE 8 13 29.94 1014 2 3 0.01 0.25
7:53 am 07:53 Cloudy with Rain 60 15.6 59 15 96 96 NE 8 13 29.95 1014 1 2 0.05 1.27
8:24 am 08:24 Cloudy with Light Rain 61 16 57 14 88 88 NE 10 17 29.94 1014 2 3 0.00 0.00
8:31 am 08:31 Cloudy with Rain 60 15.6 58 14.4 93 93 NE 10 17 29.94 1014 1 2 0.08 2.03
8:53 am 08:53 Cloudy with Light Rain 60 15.6 59 15 96 96 ENE 8 13 29.96 1015 1 2 0.11 2.79
9:46 am 09:46 Cloudy with Light Rain 61 16 59 15 94 94 NE 8 13 29.94 1014 3 5 0.00 0.00
9:53 am 09:53 Cloudy with Mist and Fog 61 16.1 59 15 93 93 ENE 10 17 29.96 1015 3 5 0.04 1.02
10:53 am 10:53 Cloudy with Mist and Fog 61 16.1 60 15.6 97 97 ENE 9 15 29.96 1015 4 6 0.00 0.00
11:24 am 11:24 Cloudy with Mist and Fog 61 16 61 16 100 100 ENE 8 13 29.97 1015 3 4 0.00 0.00
11:40 am 11:40 Cloudy with Mist and Fog 61 16 61 16 100 100 ENE 8 13 29.97 1015 3 5 0.00 0.00
11:53 am 11:53 Cloudy with Mist and Fog 62 16.7 60 15.6 93 93 ENE 8 13 29.96 1015 4 6 0.00 0.00
12:04 pm 12:04 Cloudy 63 17.2 60 15.6 90 90 ENE 10 17 29.97 1015 9 14 0.00 0.00
12:35 pm 12:35 Cloudy with Mist and Fog 63 17.2 60 15.6 90 90 E 6 9 29.97 1015 6 10 0.00 0.00
12:44 pm 12:44 Cloudy 63 17 61 16 94 94 NE 8 13 29.97 1015 9 14 0.00 0.00
12:53 pm 12:53 Cloudy with Mist and Fog 62 16.7 60 15.6 93 93 NE 7 11 29.98 1015 6 10 0.00 0.00
1:28 pm 13:28 Cloudy with Mist and Fog 63 17.2 60 15.6 90 90 E 7 11 29.97 1015 3 5 0.00 0.00
1:53 pm 13:53 Cloudy 63 17.2 60 15.6 90 90 E 7 11 29.98 1015 9 14 0.00 0.00
2:53 pm 14:53 Cloudy with Mist and Fog 63 17.2 60 15.6 90 90 E 6 9 29.97 1015 6 10 0.00 0.00
3:53 pm 15:53 Cloudy with Mist and Fog 63 17.2 60 15.6 90 90 ENE 6 9 29.96 1015 6 10 0.00 0.00
4:53 pm 16:53 Cloudy 65 18.3 61 16.1 87 87 ENE 5 7 29.95 1014 8 13 0.00 0.00
5:53 pm 17:53 Cloudy 65 18.3 61 16.1 87 87 ESE 3 6 29.94 1014 8 13 0.00 0.00
6:53 pm 18:53 Cloudy 66 18.9 61 16.1 84 84 E 6 9 29.92 1013 9 14 0.00 0.00
7:14 pm 19:14 Cloudy with Haze 66 19 61 16 83 83 E 5 7 29.88 1012 5 8 0.00 0.00
7:31 pm 19:31 Cloudy 65 18.3 62 16.7 90 90 ENE 6 9 29.88 1012 9 14 0.00 0.00
7:53 pm 19:53 Cloudy 65 18.3 62 16.7 90 90 ESE 6 9 29.91 1013 8 13 0.00 0.00
8:53 pm 20:53 Cloudy with Mist and Fog 65 18.3 61 16.1 87 87 ESE 6 9 29.90 1013 6 10 0.00 0.00
9:53 pm 21:53 Cloudy with Mist and Fog 64 17.8 61 16.1 90 90 SE 7 11 29.92 1013 5 8 0.00 0.00
10:53 pm 22:53 Cloudy with Mist and Fog 64 17.8 61 16.1 90 90 ESE 6 9 29.93 1014 5 8 0.00 0.00
11:53 pm 23:53 Cloudy with Mist and Fog 63 17.2 61 16.1 93 93 SE 7 11 29.92 1013 6 10 0.00 0.00

Powered by AerisWeather